Regional Weather Roundup
Issued by NWS

Home | Current Version | Previous Version | Graphics & Text | Print | Product List | Glossary Off
Versions: 1 2 3 4 5 6 7 8 9 10 11 12 13 14 15 16 17 18 19 20 21 22 23 24 25 26 27 28 29 30 31 32 33 34 35 36 37 38 39 40 41 42 43 44 45 46 47 48 49 50

000
ASUS43 KLMK 281010
RWRKY
KENTUCKY REGIONAL WEATHER ROUNDUP
NATIONAL WEATHER SERVICE LOUISVILLE KY
600 AM EDT MON JUL 28 2014

NOTE "FAIR" INDICATES FEW OR NO CLOUDS BELOW 12,000 FEET
WITH NO SIGNIFICANT WEATHER AND/OR OBSTRUCTIONS TO VISIBILITY.

KYZ001>023-026-027-061>063-070>075-281100-
WESTERN AND SOUTH CENTRAL KENTUCKY

CITY           SKY/WX    TMP DP  RH WIND       PRES   REMARKS
PADUCAH        CLEAR     68  58  70 NW5       30.00R
HENDERSON      CLEAR     63  57  82 W6        29.95R
OWENSBORO      CLEAR     64  59  84 W6        29.95R
HOPKINSVILLE   CLEAR     67  59  74 NW5       29.98R
BOWLING GREEN  CLEAR     66  58  75 W3        29.96R
GLASGOW        CLEAR     64  58  82 CALM      29.95R
$$

KYZ024-025-028>034-038-045-046-053-281100-
NORTH CENTRAL KENTUCKY

CITY           SKY/WX    TMP DP  RH WIND       PRES   REMARKS
LOUISVILLE/SDF CLEAR     67  59  75 W9        29.91R
LOUISVILLE/LOU CLEAR     66  59  78 W6        29.91R
FORT KNOX      CLEAR     61  59  93 SW5       29.92R
$$

KYZ035>037-039>044-047>052-055>060-089>105-281100-
NORTHEAST KENTUCKY

CITY           SKY/WX    TMP DP  RH WIND       PRES   REMARKS
LEXINGTON      CLEAR     63  58  83 W6        29.90S
COVINGTON      PTCLDY    62  58  86 W12       29.87R
FRANKFORT      CLEAR     64  58  80 W5        29.89R
$$

KYZ054-064>069-076>088-106>120-281100-
SOUTHEAST KENTUCKY

CITY           SKY/WX    TMP DP  RH WIND       PRES   REMARKS
JACKSON        CLEAR     64  61  90 W5        29.90R
LONDON         MOCLDY    67  62  84 W5        29.92S
SOMERSET       PTCLDY    64  63  94 W3        29.94R
MIDDLESBORO    FOG       65  65 100 CALM      29.92S VSB 1
MONTICELLO     SUNNY     63  62  96 CALM      29.95R
$$




USA.gov is the U.S. government's official web portal to all federal, state and local government web resources and services.